Tracking 25195 objects as of 20-Jan-2022
HD Live streaming from Space Station
objects crossing your sky now

ZY 3

Track ZY 3 now!
10-day predictions
ZY 3 is classified as:


NORAD ID: 38046
Int'l Code: 2012-001A
Perigee: 508.2 km
Apogee: 509.7 km
Inclination: 97.4 °
Period: 94.7 minutes
Semi major axis: 6879 km
RCS: 5.391 m2 (large)
Launch date: January 9, 2012
Source: People's Republic of China (PRC)
Launch site: Taiyaun Space Center, China (TSC)
aabbcc
Your satellite tracking list
Your tracking list is empty




NASA's NSSDC Master Catalog

Two Line Element Set (TLE):
1 38046U 12001A   22020.17963279  .00003538  00000-0  16104-3 0  9999
2 38046  97.3600  94.6448 0001067 359.9263  84.1452 15.21340123557063
Source of the keplerian elements: AFSPC